Regional Weather Roundup
Issued by NWS State College, PA

Home | Current Version | Previous Version | Graphics & Text | Print | Product List | Glossary On
Versions: 1 2 3 4 5 6 7 8 9 10 11 12 13 14 15 16 17 18 19 20 21 22 23 24 25 26 27 28 29 30 31 32 33 34 35 36 37 38 39 40 41 42 43 44 45 46 47 48 49 50
000
ASUS41 KCTP 212210
RWRCTP

REGIONAL WEATHER ROUNDUP
NATIONAL WEATHER SERVICE STATE COLLEGE PA
600 PM EDT TUE OCT 21 2014

Note: "fair" indicates few or no clouds below 12,000 feet with no
significant weather and/or obstructions to visibility.

* = STATION THAT DOES NOT REPORT PRECIPITATION /E.G. RAIN...SNOW...ETC/
    THUNDER OR FOG.

PAZ002>004-007>009-013>016-020>023-029>032-212300-
WESTERN PENNSYLVANIA

CITY           SKY/WX    TMP DP  RH WIND       PRES   REMARKS
ERIE           LGT RAIN  50  46  86 N15G23    29.96R FOG
MEADVILLE      CLOUDY    47  45  93 NW5       29.95R FOG
FRANKLIN*      CLOUDY    46  43  87 NW6       29.95R
NEW CASTLE       N/A     47  46  96 NW5       29.98R
BEAVER COUNTY  CLOUDY    46  45  93 NW7       29.96R
BUTLER*        CLOUDY    48  43  81 NW7       29.96R
PITTSBURGH INT DRIZZLE   48  45  89 NW12      29.95R
PITTSBURGH     CLOUDY    49  44  83 NW12      29.93R
INDIANA*       CLOUDY    50  46  87 CALM      29.95R
LATROBE        LGT RAIN  48  48 100 NW6       29.94R FOG
WASHINGTON CO* CLOUDY    48  45  87 NW3       29.97R
$$

PAZ004>006-010>012-017>019-024>028-033>037-041-042-045-046-049>053-212300-
CENTRAL PENNSYLVANIA

CITY           SKY/WX    TMP DP  RH WIND       PRES   REMARKS
BRADFORD       LGT RAIN  49  44  83 N7        29.90R
DUBOIS         CLOUDY    47  46  97 NW3       29.90R FOG
CLEARFIELD     CLOUDY    50  46  86 N6        29.90R
JOHNSTOWN      CLOUDY    48  41  76 N8        29.89R
ALTOONA        CLOUDY    52  44  74 NW6       29.88R
STATE COLLEGE  CLOUDY    52  48  87 VRB5      29.88R
WILLIAMSPORT   CLOUDY    56  48  74 CALM      29.85R
SELINSGROVE    CLOUDY    59  47  64 NE3       29.86R
FT INDIANTOWN  CLOUDY    59  53  79 N3        29.85R
CAPITAL CITY   MOCLDY    60  49  66 W3        29.85R
HARRISBURG     LGT RAIN  59  51  75 CALM      29.84R
YORK           LGT RAIN  56  51  84 SW3       29.85R
$$

PAZ038>040-043-044-047-048-054-055-060>062-067>071-212300-
EASTERN PENNSYLVANIA

CITY           SKY/WX    TMP DP  RH WIND       PRES   REMARKS
SCRANTON       CLOUDY    58  48  69 NE8       29.86R
MOUNT POCONO   LGT RAIN  52  49  89 N3        29.86R
ALLENTOWN      CLEAR     62  46  55 NW3       29.83R
QUAKERTOWN*    CLOUDY    63  48  59 N3        29.84R
READING        CLEAR     61  48  62 NW6       29.83R
LANCASTER      CLOUDY    59  48  67 NW5       29.84R
COATESVILLE    PTCLDY    59  48  67 NW3       29.84R
POTTSTOWN      CLOUDY    64  48  56 NW5       29.84R
BLUE BELL      PTCLDY    64  50  59 CALM      29.81R
DOYLESTOWN     PTCLDY    61  49  64 N3        29.82R
WILLOW GROVE   NOT AVBL
NORTH PHILA    PTCLDY    65  46  50 CALM      29.83R
PHILADELPHIA   MOCLDY    66  48  52 SW6       29.82R
$$



USA.gov is the U.S. government's official web portal to all federal, state and local government web resources and services.